Theta_e
314 329 331 329 331 331 332 333 332 333 341 340 354 353 347 347 346 356 353 359 361 357 348 344 341 338 337 340 343 345 338 327 325 329 332 330 330 330 332 335 337 339 338 336 335 336 340 343 346
317 327 326 329 333 335 335 331 331 334 338 337 353 354 352 347 351 353 360 360 361 357 354 343 338 336 337 341 343 345 341 330 326 328 332 330 332 329 331 335 335 337 337 337 337 338 341 343 345
322 326 328 332 334 335 333 330 330 332 336 337 351 352 359 366 361 361 360 360 360 356 355 341 337 336 338 341 344 345 343 336 328 327 332 332 332 330 333 337 338 339 338 339 338 340 341 342 343
324 326 325 332 334 329 327 328 329 332 335 337 347 349 351 354 357 357 360 358 358 360 355 340 337 336 336 340 343 344 343 341 335 326 330 332 332 332 337 340 340 339 339 340 339 339 340 341 341
322 325 327 332 333 332 328 326 328 331 334 338 342 341 345 346 353 353 355 357 361 361 349 342 338 336 335 336 340 343 343 341 333 326 328 332 332 332 337 342 343 342 342 341 340 339 340 340 338
321 323 324 327 329 331 327 325 326 331 334 336 338 330 337 339 343 349 351 353 361 358 353 344 342 339 336 334 336 340 341 340 334 328 327 331 332 333 333 338 339 340 340 337 338 338 338 339 338
321 322 323 325 327 327 326 324 324 326 329 328 329 331 328 331 334 340 345 347 350 358 359 354 346 343 341 337 334 333 338 340 339 332 329 331 333 333 333 334 335 338 340 337 332 332 334 337 332
321 322 323 323 325 326 324 323 323 324 325 326 327 327 326 325 325 331 340 345 344 354 357 360 357 348 345 344 341 337 332 332 337 341 340 338 337 335 333 334 335 337 338 337 330 328 328 328 329
321 320 321 323 323 325 324 323 323 323 324 324 325 325 324 324 325 326 327 334 339 339 341 350 360 359 357 354 346 342 340 333 331 333 337 341 343 346 342 337 340 338 338 338 332 329 330 332 331
321 321 323 324 324 323 323 323 323 322 323 324 324 324 324 324 325 325 325 325 325 325 327 331 342 347 346 358 356 354 353 350 340 336 343 339 346 347 349 348 345 344 342 338 336 333 335 335 335
323 323 324 323 323 322 322 322 322 321 322 324 324 323 322 323 324 324 324 324 324 323 324 324 326 335 339 342 351 359 357 353 352 350 347 347 348 344 343 346 346 344 344 343 340 338 337 337 337
322 322 322 323 322 321 321 321 321 321 322 322 322 322 322 322 324 325 323 323 324 325 327 325 329 327 327 333 341 341 343 354 355 352 350 349 350 347 344 344 347 346 346 346 346 344 343 339 339
322 322 321 321 321 320 321 320 320 321 321 322 321 321 321 322 322 322 322 322 325 326 328 329 330 330 329 328 329 331 341 342 340 352 353 351 349 350 347 344 345 348 347 348 345 346 345 343 341
322 321 321 321 321 321 320 320 320 320 321 321 321 321 321 321 321 321 322 325 326 327 328 332 332 330 331 330 329 327 335 344 339 338 350 353 348 350 350 348 345 344 344 345 346 343 342 345 343
321 321 321 322 322 322 321 320 320 321 321 321 321 321 321 321 321 321 322 326 326 327 330 331 329 330 332 334 334 333 329 334 343 340 337 350 350 349 351 350 349 346 344 342 343 343 341 340 342
323 323 324 323 323 322 320 321 321 321 322 322 322 322 321 321 321 321 325 325 327 328 328 328 328 329 329 329 334 332 331 326 330 340 334 342 352 351 351 349 351 348 347 343 344 343 342 342 342
324 324 322 322 323 322 321 322 322 322 321 321 321 321 320 321 321 323 325 325 326 327 327 327 327 324 324 325 325 332 331 329 325 328 336 339 349 355 353 353 349 352 349 348 347 346 343 342 343
323 322 322 322 323 323 322 323 323 322 321 321 320 321 321 321 320 326 326 325 326 326 326 325 326 323 323 321 323 323 328 333 331 327 330 332 337 354 355 353 352 350 349 349 349 345 347 345 344
321 322 323 324 324 324 323 323 322 322 321 321 321 321 321 319 322 326 325 325 325 325 325 325 325 326 324 324 323 321 322 321 327 332 333 331 332 342 353 353 350 350 349 351 350 348 344 346 344
322 323 324 324 323 324 324 322 321 321 322 322 321 320 319 319 322 326 325 325 324 324 324 324 325 325 325 325 323 323 321 320 322 333 331 336 336 333 337 344 347 346 351 352 350 350 346 346 344
323 323 323 322 323 322 320 321 322 321 321 320 319 318 319 320 322 326 327 325 324 323 323 322 323 324 323 323 324 324 322 322 321 316 323 329 334 338 329 339 335 341 348 351 351 351 346 345 345
323 322 320 321 321 320 320 322 322 322 322 320 319 320 320 321 323 323 328 326 324 323 321 321 322 323 323 322 322 322 324 324 323 323 320 317 321 330 337 344 349 345 349 347 348 350 349 344 345
322 319 319 320 321 322 322 323 323 323 320 320 320 320 320 320 321 324 323 323 323 322 321 321 321 322 322 322 322 321 322 322 323 323 323 319 313 316 330 340 343 337 344 345 345 347 348 348 344
320 321 321 321 322 327 323 322 322 321 321 320 320 320 319 319 321 323 323 322 322 322 320 320 322 321 321 321 321 321 322 322 323 323 324 325 325 327 332 336 333 325 335 341 344 347 346 346 348
321 321 327 324 327 325 321 321 322 321 320 321 320 320 320 320 320 322 322 322 322 322 320 320 320 321 321 320 319 319 320 320 320 322 323 321 323 324 328 337 334 319 321 337 343 347 348 346 346
319 319 325 327 327 324 321 320 319 321 321 321 322 324 322 323 323 320 319 320 319 321 321 321 320 320 319 318 319 318 318 319 319 320 322 323 323 323 324 325 335 332 330 338 340 347 345 346 345
319 320 319 324 323 324 322 321 321 322 321 321 321 322 323 323 322 320 318 318 316 317 320 319 319 319 318 317 316 316 317 319 320 319 319 322 322 323 325 326 328 338 336 337 337 345 343 347 344
320 320 324 326 328 326 322 323 322 322 321 321 321 321 322 322 320 320 319 317 317 315 316 317 318 317 316 315 316 316 316 317 317 318 319 320 321 322 323 324 326 335 335 327 325 338 341 343 346
319 320 321 323 323 329 328 321 321 323 322 322 320 320 320 321 319 318 317 318 315 315 316 316 317 316 315 315 315 315 316 316 316 316 317 318 319 321 321 323 326 333 337 336 329 338 342 339 341
318 319 320 330 326 326 327 327 320 321 320 319 320 320 319 319 320 319 317 317 318 316 315 315 314 314 313 314 314 314 314 315 315 315 317 318 320 320 321 322 326 329 337 338 338 339 340 338 339
Wind_Speed
13 15 14 14 5 7 15 2 7 10 7 13 19 15 19 18 7 3 16 13 27 21 18 16 14 11 8 7 7 8 9 10 12 14 15 15 14 15 14 13 12 11 10 11 10 9 8 7 6
12 15 12 6 6 9 11 10 14 12 11 9 24 26 9 21 14 7 7 16 25 18 16 16 13 11 8 8 8 10 10 10 12 14 15 15 14 13 12 11 10 10 10 10 9 8 7 5 4
10 14 4 5 11 5 8 16 14 5 7 9 10 24 15 10 13 11 14 24 22 18 17 16 13 11 9 8 9 10 10 9 10 13 14 14 14 14 13 11 9 9 10 9 9 8 7 5 3
9 5 4 3 16 4 12 14 15 10 2 6 19 11 20 20 13 13 22 18 23 25 16 15 12 10 9 8 8 10 10 9 9 13 15 15 15 14 13 12 10 9 9 9 9 8 8 6 4
12 5 7 5 18 7 5 13 18 13 6 7 19 16 18 17 15 14 11 18 35 25 21 16 11 9 9 8 7 8 8 8 8 11 14 15 15 15 15 13 11 10 9 9 9 9 9 8 6
4 8 11 11 25 8 7 8 18 13 8 15 14 16 12 15 15 14 15 23 32 27 19 14 10 9 8 7 7 6 7 7 7 10 13 14 15 15 15 15 13 11 10 10 10 10 10 9 8
9 10 13 13 1 8 3 8 12 16 11 14 20 7 10 12 10 7 11 9 15 16 18 15 12 10 9 8 7 6 6 7 8 10 11 13 14 15 16 16 16 14 13 11 11 10 11 11 10
8 11 16 12 9 10 8 5 6 8 10 12 12 14 12 8 12 10 7 11 13 20 20 18 14 14 12 11 10 7 7 8 9 10 11 12 14 15 17 17 18 17 15 13 13 12 12 11 11
6 11 8 10 7 8 10 5 7 2 8 3 10 10 10 5 8 15 15 3 13 5 6 18 21 14 13 13 11 8 7 9 11 12 13 14 15 14 16 18 18 19 18 16 15 14 13 13 13
8 9 8 10 10 9 6 3 2 1 8 8 7 5 6 6 8 6 5 10 13 16 14 23 11 5 4 15 11 8 6 8 12 12 11 14 14 16 16 18 18 21 19 19 18 17 15 15 14
9 6 7 6 10 7 10 6 10 4 12 9 8 9 4 4 6 11 16 12 13 13 17 15 14 10 9 9 5 16 16 15 13 13 15 13 11 17 18 18 23 22 22 20 20 20 20 17 14
6 2 7 5 6 4 8 10 5 9 6 8 8 4 7 2 3 11 6 11 11 14 16 12 17 14 11 11 10 14 12 16 20 21 21 18 16 16 19 20 20 23 21 22 20 20 21 20 19
10 4 2 0 5 8 8 7 9 8 11 8 3 3 8 10 4 3 9 2 10 10 14 14 15 14 14 14 14 17 15 13 16 15 24 22 19 17 17 19 18 23 23 24 22 24 23 25 20
7 6 4 5 7 3 5 10 9 11 12 8 5 8 10 11 8 4 1 7 11 10 10 10 12 11 10 12 16 19 16 15 20 19 17 23 20 22 19 19 22 21 19 22 26 25 28 26 24
9 8 13 11 8 2 1 10 17 17 12 7 5 10 13 11 15 9 3 10 9 10 11 11 11 11 12 11 13 16 19 18 20 24 23 23 22 19 22 20 21 23 23 24 19 21 28 24 21
12 14 11 12 12 7 4 12 12 4 9 9 13 12 13 12 16 14 11 7 8 7 9 7 9 11 12 13 14 16 18 23 24 23 28 20 25 24 26 24 21 24 23 26 24 21 18 19 20
11 8 8 5 6 4 10 14 12 12 13 12 12 13 13 14 14 9 11 6 9 8 5 6 8 12 14 16 15 16 16 20 25 26 24 22 23 27 27 25 28 20 22 23 26 21 25 20 21
17 15 13 13 13 7 13 15 13 14 15 14 13 14 13 15 8 19 12 9 9 6 4 6 8 13 14 16 16 19 20 19 20 24 28 29 23 30 31 32 33 31 23 26 26 27 20 20 19
12 14 15 16 15 15 15 16 16 16 17 18 16 13 12 4 8 15 10 7 7 6 2 6 9 12 13 15 17 18 19 23 26 26 24 28 32 18 29 34 33 33 28 25 25 23 19 28 23
14 14 17 16 16 15 16 20 21 21 21 20 15 8 5 7 6 12 13 8 7 8 6 2 8 12 14 13 16 15 19 23 26 24 26 27 30 33 27 27 25 24 25 25 26 26 25 17 22
14 16 16 16 18 18 20 23 20 18 17 9 5 3 6 6 5 10 14 14 13 11 10 8 4 5 11 15 16 18 21 18 21 31 27 26 26 27 32 32 20 28 32 24 28 25 26 20 19
14 16 17 17 17 16 17 18 20 20 19 11 12 13 12 13 12 6 13 15 17 14 10 10 8 3 3 11 15 17 19 19 21 22 29 33 33 31 29 34 27 29 27 29 23 24 24 26 19
14 15 15 18 19 20 20 13 18 19 3 11 11 6 5 1 3 11 14 16 15 14 16 9 4 2 4 6 11 14 17 19 22 23 26 31 34 31 32 23 30 24 28 31 26 23 25 24 24
8 14 17 19 17 15 20 14 15 10 14 18 11 7 4 5 10 11 10 2 7 11 2 4 11 7 6 7 12 15 18 19 21 24 28 28 29 30 29 24 17 16 26 31 31 28 27 26 22
11 14 9 6 9 13 19 19 14 20 20 15 12 12 12 14 9 10 8 10 7 3 9 7 12 5 7 8 11 17 18 20 22 25 23 28 28 27 29 18 15 20 37 42 33 30 27 28 27
14 13 8 16 13 17 19 13 15 13 19 16 22 24 19 20 19 16 19 26 29 37 5 4 8 10 9 11 12 15 21 22 22 23 23 26 29 32 36 39 20 14 25 40 37 30 27 25 27
11 11 14 10 14 15 14 20 19 10 16 20 22 22 22 19 15 17 19 21 28 40 34 16 13 10 10 12 15 18 21 22 19 23 26 27 28 30 31 36 37 25 19 34 26 29 29 28 29
18 14 10 6 7 16 16 21 16 12 16 3 5 13 2 8 17 15 12 10 7 21 30 21 16 13 11 15 15 17 21 23 23 23 27 28 30 31 34 37 36 30 16 21 34 33 30 31 29
16 13 12 13 11 11 13 12 16 23 24 19 16 18 15 14 10 7 9 12 12 14 32 19 19 19 16 18 19 20 20 20 22 26 28 30 32 31 32 34 33 31 24 24 27 36 36 29 27
14 12 13 4 12 14 14 19 19 19 22 16 17 12 9 10 10 11 17 18 22 26 16 11 15 19 21 20 19 19 21 22 23 26 29 28 28 30 32 32 31 32 28 26 29 32 32 29 30
Wind_Direction
292 296 270 268 259 231 267 1 2 3 41 357 100 111 146 127 138 233 283 86 107 115 128 125 120 118 115 115 135 152 156 155 167 170 164 161 160 160 159 152 149 147 141 140 137 132 123 116 108
306 307 273 266 262 329 335 29 23 20 359 313 101 95 85 139 170 246 235 95 103 114 123 122 118 113 107 108 128 151 159 161 171 178 176 171 171 171 171 167 161 163 160 153 150 147 139 132 125
311 269 278 293 253 48 320 12 349 24 328 331 59 60 76 103 120 136 109 98 106 121 124 117 116 111 103 100 125 150 162 167 172 183 186 182 180 181 179 179 174 169 169 170 168 168 163 161 161
267 218 247 271 292 90 15 357 327 321 229 10 65 61 65 72 101 84 124 134 141 124 114 119 117 113 105 105 125 151 165 174 181 187 192 192 190 192 189 186 185 184 184 187 189 188 186 189 198
270 272 246 226 276 165 26 350 322 322 336 358 77 82 73 84 98 109 91 131 110 109 114 122 125 124 120 118 126 152 171 180 185 192 199 201 200 200 201 201 198 200 207 209 208 205 206 204 222
247 241 272 235 231 114 69 355 326 343 11 25 78 84 61 65 59 68 46 71 105 111 117 123 135 136 136 136 137 152 177 189 198 201 205 207 209 211 213 217 219 221 221 224 224 217 216 221 232
249 273 262 266 286 152 102 3 339 336 20 11 337 100 98 44 27 74 114 101 96 123 127 119 143 156 156 156 161 169 183 197 204 208 209 213 218 220 222 223 227 233 236 236 230 228 225 233 238
273 272 269 269 257 97 106 197 345 356 356 339 358 16 63 40 348 341 101 132 124 150 134 142 163 158 164 168 171 178 197 208 214 219 221 223 225 226 227 226 228 230 234 237 235 234 236 238 246
256 271 261 255 75 99 132 211 155 294 275 30 0 33 58 67 29 11 357 357 102 108 81 143 170 163 187 165 157 175 200 218 221 223 225 223 224 233 229 231 228 231 232 234 235 237 239 242 248
224 251 337 38 49 22 55 313 144 270 230 166 149 95 96 52 27 102 340 354 32 35 41 50 30 6 69 157 169 179 202 208 226 229 234 236 230 221 230 232 232 232 236 235 235 236 236 241 249
257 3 55 83 37 9 336 325 265 252 274 231 143 108 84 71 101 358 14 31 18 34 22 37 35 35 5 351 217 205 208 203 205 205 210 224 230 234 237 230 227 225 230 236 237 233 233 239 248
281 17 352 76 89 297 263 265 302 269 268 57 54 32 321 262 72 113 7 341 21 26 20 2 17 7 339 316 311 325 284 209 209 212 202 200 216 241 235 221 217 222 226 232 227 237 238 242 237
279 116 200 203 234 224 292 279 258 302 264 120 276 203 262 264 257 188 146 216 58 21 9 349 354 341 329 328 310 295 307 291 283 221 201 201 206 217 245 239 223 216 212 221 223 226 234 235 235
10 291 245 197 213 274 234 264 245 228 262 163 228 267 264 274 268 265 261 68 48 33 3 353 343 333 328 316 298 287 292 276 271 286 228 215 219 215 217 246 247 250 235 217 220 218 227 230 227
283 258 216 213 202 242 318 265 251 249 238 191 217 274 272 257 262 247 314 63 35 31 27 4 341 353 347 329 308 296 288 288 262 271 271 220 217 210 227 229 241 253 259 263 263 231 222 226 230
234 228 271 166 188 166 165 273 289 2 187 204 234 253 264 270 273 262 106 70 70 46 22 11 7 3 352 344 321 311 289 276 277 272 267 247 216 208 220 218 230 234 243 250 259 262 254 224 219
210 312 323 307 205 166 217 272 272 287 281 252 236 232 248 258 247 183 121 114 91 79 35 20 22 7 14 356 343 314 306 289 277 278 277 278 221 214 212 219 222 233 239 244 243 248 244 244 218
326 329 322 309 310 251 260 283 299 287 288 285 273 260 253 254 256 114 121 109 102 90 32 9 18 11 17 7 2 352 349 328 300 276 274 271 273 222 216 217 215 219 234 240 246 236 244 248 238
310 298 297 297 293 290 290 292 285 285 281 271 271 269 265 293 114 120 123 122 140 132 2 354 3 3 9 5 358 355 346 325 318 302 286 269 264 270 225 219 216 212 222 233 237 243 222 250 232
292 282 281 292 310 316 306 298 294 279 266 260 247 264 315 280 157 138 151 168 186 177 176 289 352 352 354 352 345 337 334 332 325 308 310 305 260 260 267 237 238 214 217 233 232 232 228 244 240
283 290 300 314 315 297 286 279 285 302 297 253 176 243 285 304 255 190 161 180 198 194 181 183 190 329 338 347 342 338 336 331 338 333 333 326 327 277 273 269 245 231 223 225 228 230 233 229 235
300 336 332 314 306 295 319 296 287 276 260 247 201 211 217 223 209 212 175 192 190 200 196 209 194 190 309 339 334 333 323 323 327 320 319 315 308 308 303 283 237 224 222 227 232 227 223 227 232
306 320 309 294 282 281 279 270 282 289 246 264 246 244 258 295 241 203 220 227 208 192 203 192 149 6 324 352 324 319 316 316 312 313 310 306 303 306 302 280 248 308 260 232 226 228 217 217 224
275 284 300 294 281 269 270 267 280 304 314 309 289 244 251 284 244 239 216 241 219 181 190 17 19 320 342 341 320 315 308 310 311 306 301 298 301 305 309 299 258 240 235 251 227 221 221 214 217
319 327 314 301 318 296 317 323 319 323 309 349 12 4 338 316 306 357 327 287 269 301 179 156 224 286 303 322 319 310 306 305 301 298 298 300 300 300 301 315 276 221 226 245 232 214 208 213 215
297 288 276 293 302 304 317 293 293 10 13 7 6 4 15 15 18 28 22 19 19 339 342 18 307 298 312 315 310 310 306 294 292 295 300 307 303 299 295 296 287 224 242 253 233 222 211 210 219
313 299 294 302 288 284 286 289 286 47 48 3 355 339 341 349 1 5 23 28 34 338 310 338 320 316 315 318 314 309 306 299 301 301 295 291 292 294 294 289 295 309 241 244 263 232 214 206 217
259 251 280 276 289 275 285 304 294 324 1 90 331 283 289 331 347 349 342 326 305 283 304 332 329 312 303 299 301 307 301 300 298 300 297 292 290 290 290 291 295 304 281 223 238 256 228 214 211
318 302 264 272 281 287 295 284 324 330 334 336 345 356 349 339 341 335 315 293 287 285 283 310 305 306 316 311 309 303 296 300 302 300 294 290 288 287 288 288 291 295 281 254 234 246 233 222 220
266 300 302 4 296 285 296 281 304 324 328 350 351 12 353 302 302 317 289 278 264 255 311 297 309 321 311 298 305 308 313 313 309 303 296 295 291 291 287 286 288 288 279 261 243 239 238 225 226